Time,TemperatureF,DewpointF,PressureIn,WindDirection,WindDirectionDegrees,WindSpeedMPH,WindSpeedGustMPH,Humidity,HourlyPrecipIn,Conditions,Clouds,dailyrainin,SoftwareType,DateUTC
2013-02-04 00:02:00,30.1,21.5,30.21,NNE,27,3.0,3.0,70,0.00,,,0.00,Wunderground v.1.15,2013-02-04 05:02:00,
2013-02-04 00:04:00,30.0,21.4,30.21,NNE,23,3.0,3.0,70,0.00,,,0.00,Wunderground v.1.15,2013-02-04 05:04:00,
2013-02-04 00:08:00,29.9,21.3,30.21,NNE,30,3.0,3.0,70,0.00,,,0.00,Wunderground v.1.15,2013-02-04 05:08:00,
2013-02-04 00:12:00,29.8,21.2,30.20,NNE,18,2.0,2.0,70,0.00,,,0.00,Wunderground v.1.15,2013-02-04 05:12:00,
2013-02-04 00:18:00,29.7,21.1,30.20,NNE,13,2.0,2.0,70,0.00,,,0.00,Wunderground v.1.15,2013-02-04 05:18:00,
2013-02-04 00:24:00,29.8,21.2,30.21,NNE,23,2.0,3.0,70,0.00,,,0.00,Wunderground v.1.15,2013-02-04 05:24:00,
2013-02-04 00:30:00,29.6,21.0,30.21,NNE,20,2.0,3.0,70,0.00,,,0.00,Wunderground v.1.15,2013-02-04 05:30:00,
2013-02-04 00:36:00,29.4,21.2,30.20,North,352,2.0,2.0,71,0.00,,,0.00,Wunderground v.1.15,2013-02-04 05:36:00,
2013-02-04 00:42:00,29.1,20.9,30.20,North,11,1.0,1.0,71,0.00,,,0.00,Wunderground v.1.15,2013-02-04 05:42:00,
2013-02-04 00:48:00,28.6,21.0,30.20,NE,39,1.0,3.0,73,0.00,,,0.00,Wunderground v.1.15,2013-02-04 05:48:00,
2013-02-04 00:54:00,28.6,21.0,30.20,NE,36,2.0,3.0,73,0.00,,,0.00,Wunderground v.1.15,2013-02-04 05:54:00,
2013-02-04 01:00:00,28.8,20.9,30.20,North,352,2.0,2.0,72,0.00,,,0.00,Wunderground v.1.15,2013-02-04 06:00:00,
2013-02-04 01:06:00,28.7,20.8,30.20,NNE,32,1.0,5.0,72,0.00,,,0.00,Wunderground v.1.15,2013-02-04 06:06:00,
2013-02-04 01:12:00,28.2,21.0,30.20,NNE,20,1.0,2.0,74,0.00,,,0.00,Wunderground v.1.15,2013-02-04 06:12:00,
2013-02-04 01:18:00,28.4,20.8,30.19,NNE,31,1.0,5.0,73,0.00,,,0.00,Wunderground v.1.15,2013-02-04 06:18:00,
2013-02-04 01:24:00,28.1,20.9,30.19,NNE,31,1.0,5.0,74,0.00,,,0.00,Wunderground v.1.15,2013-02-04 06:24:00,
2013-02-04 01:30:00,27.4,20.8,30.18,NNE,31,0.0,5.0,76,0.00,,,0.00,Wunderground v.1.15,2013-02-04 06:30:00,
2013-02-04 01:36:00,26.8,20.9,30.19,NNE,32,1.0,5.0,78,0.00,,,0.00,Wunderground v.1.15,2013-02-04 06:36:00,
2013-02-04 01:42:00,26.8,20.6,30.19,NNE,26,2.0,5.0,77,0.00,,,0.00,Wunderground v.1.15,2013-02-04 06:42:00,
2013-02-04 01:48:00,26.8,20.9,30.19,NNE,31,1.0,5.0,78,0.00,,,0.00,Wunderground v.1.15,2013-02-04 06:48:00,
2013-02-04 01:54:00,26.7,20.5,30.18,North,350,1.0,5.0,77,0.00,,,0.00,Wunderground v.1.15,2013-02-04 06:54:00,
2013-02-04 02:00:00,26.5,20.6,30.18,North,350,0.0,5.0,78,0.00,,,0.00,Wunderground v.1.15,2013-02-04 07:00:00,
2013-02-04 02:06:00,26.2,20.6,30.17,NE,53,1.0,5.0,79,0.00,,,0.00,Wunderground v.1.15,2013-02-04 07:06:00,
2013-02-04 02:12:00,25.9,20.6,30.17,ENE,57,2.0,5.0,80,0.00,,,0.00,Wunderground v.1.15,2013-02-04 07:12:00,
2013-02-04 02:18:00,26.0,20.7,30.17,NNW,335,0.0,5.0,80,0.00,,,0.00,Wunderground v.1.15,2013-02-04 07:18:00,
2013-02-04 02:24:00,26.2,20.3,30.17,NNE,13,0.0,5.0,78,0.00,,,0.00,Wunderground v.1.15,2013-02-04 07:24:00,
2013-02-04 02:30:00,26.7,20.8,30.17,North,6,1.0,5.0,78,0.00,,,0.00,Wunderground v.1.15,2013-02-04 07:30:00,
2013-02-04 02:36:00,26.9,21.0,30.17,NNE,19,2.0,5.0,78,0.00,,,0.00,Wunderground v.1.15,2013-02-04 07:36:00,
2013-02-04 02:42:00,27.0,21.1,30.16,NNE,18,2.0,5.0,78,0.00,,,0.00,Wunderground v.1.15,2013-02-04 07:42:00,
2013-02-04 02:48:00,27.0,21.4,30.16,NNE,13,1.0,5.0,79,0.00,,,0.00,Wunderground v.1.15,2013-02-04 07:48:00,
2013-02-04 02:54:00,27.2,21.5,30.16,NNE,29,2.0,5.0,79,0.00,,,0.00,Wunderground v.1.15,2013-02-04 07:54:00,
2013-02-04 03:00:00,27.2,21.5,30.16,NE,39,2.0,5.0,79,0.00,,,0.00,Wunderground v.1.15,2013-02-04 08:00:00,
2013-02-04 03:06:00,26.9,21.3,30.15,NE,41,1.0,5.0,79,0.00,,,0.00,Wunderground v.1.15,2013-02-04 08:06:00,
2013-02-04 03:12:00,26.1,21.1,30.15,ENE,69,1.0,5.0,81,0.00,,,0.00,Wunderground v.1.15,2013-02-04 08:12:00,
2013-02-04 03:18:00,25.8,21.1,30.15,NE,47,1.0,5.0,82,0.00,,,0.00,Wunderground v.1.15,2013-02-04 08:18:00,
2013-02-04 03:24:00,26.0,21.5,30.16,NE,37,1.0,5.0,83,0.00,,,0.00,Wunderground v.1.15,2013-02-04 08:24:00,
2013-02-04 03:30:00,26.3,21.8,30.16,NE,37,1.0,1.0,83,0.00,,,0.00,Wunderground v.1.15,2013-02-04 08:30:00,
2013-02-04 03:36:00,26.3,21.8,30.15,NE,37,0.0,5.0,83,0.00,,,0.00,Wunderground v.1.15,2013-02-04 08:36:00,
2013-02-04 03:42:00,26.0,21.3,30.15,NE,37,0.0,5.0,82,0.00,,,0.00,Wunderground v.1.15,2013-02-04 08:42:00,
2013-02-04 03:48:00,25.6,21.2,30.16,NE,37,0.0,5.0,83,0.00,,,0.00,Wunderground v.1.15,2013-02-04 08:48:00,
2013-02-04 03:54:00,25.4,21.2,30.16,NE,37,0.0,5.0,84,0.00,,,0.00,Wunderground v.1.15,2013-02-04 08:54:00,
2013-02-04 04:00:00,25.3,21.1,30.16,NE,37,0.0,5.0,84,0.00,,,0.00,Wunderground v.1.15,2013-02-04 09:00:00,
2013-02-04 04:06:00,25.3,20.9,30.16,NE,37,0.0,5.0,83,0.00,,,0.00,Wunderground v.1.15,2013-02-04 09:06:00,
2013-02-04 04:12:00,25.8,21.1,30.16,North,11,1.0,5.0,82,0.00,,,0.00,Wunderground v.1.15,2013-02-04 09:12:00,
2013-02-04 04:18:00,26.3,21.0,30.16,NNE,22,2.0,5.0,80,0.00,,,0.00,Wunderground v.1.15,2013-02-04 09:18:00,
2013-02-04 04:24:00,26.5,20.9,30.15,NE,41,2.0,5.0,79,0.00,,,0.00,Wunderground v.1.15,2013-02-04 09:24:00,
2013-02-04 04:30:00,26.3,20.7,30.14,NNE,16,1.0,1.0,79,0.00,,,0.00,Wunderground v.1.15,2013-02-04 09:30:00,
2013-02-04 04:36:00,26.0,20.7,30.15,NNE,15,0.0,5.0,80,0.00,,,0.00,Wunderground v.1.15,2013-02-04 09:36:00,
2013-02-04 04:42:00,25.5,20.5,30.15,NE,56,2.0,5.0,81,0.00,,,0.00,Wunderground v.1.15,2013-02-04 09:42:00,
2013-02-04 04:48:00,25.3,20.6,30.15,NE,45,2.0,5.0,82,0.00,,,0.00,Wunderground v.1.15,2013-02-04 09:48:00,
2013-02-04 04:54:00,25.3,20.6,30.14,NE,40,2.0,5.0,82,0.00,,,0.00,Wunderground v.1.15,2013-02-04 09:54:00,
2013-02-04 05:00:00,25.1,20.4,30.14,NE,39,1.0,1.0,82,0.00,,,0.00,Wunderground v.1.15,2013-02-04 10:00:00,
2013-02-04 05:06:00,25.1,20.7,30.15,NE,37,1.0,5.0,83,0.00,,,0.00,Wunderground v.1.15,2013-02-04 10:06:00,
2013-02-04 05:12:00,24.9,20.5,30.14,ENE,58,1.0,5.0,83,0.00,,,0.00,Wunderground v.1.15,2013-02-04 10:12:00,
2013-02-04 05:18:00,25.0,20.6,30.14,ENE,58,1.0,5.0,83,0.00,,,0.00,Wunderground v.1.15,2013-02-04 10:18:00,
2013-02-04 05:24:00,24.9,21.0,30.14,East,96,0.0,5.0,85,0.00,,,0.00,Wunderground v.1.15,2013-02-04 10:24:00,
2013-02-04 05:30:00,25.0,21.4,30.15,ENE,68,0.0,5.0,86,0.00,,,0.00,Wunderground v.1.15,2013-02-04 10:30:00,
2013-02-04 05:36:00,25.0,21.4,30.15,ENE,66,1.0,5.0,86,0.00,,,0.00,Wunderground v.1.15,2013-02-04 10:36:00,
2013-02-04 05:42:00,25.4,21.2,30.16,NE,47,2.0,5.0,84,0.00,,,0.00,Wunderground v.1.15,2013-02-04 10:42:00,
2013-02-04 05:48:00,25.7,21.8,30.16,NE,39,2.0,5.0,85,0.00,,,0.00,Wunderground v.1.15,2013-02-04 10:48:00,
2013-02-04 05:54:00,25.7,21.5,30.16,NE,39,1.0,5.0,84,0.00,,,0.00,Wunderground v.1.15,2013-02-04 10:54:00,
2013-02-04 06:00:00,25.7,21.8,30.17,NE,39,0.0,5.0,85,0.00,,,0.00,Wunderground v.1.15,2013-02-04 11:00:00,
2013-02-04 06:06:00,25.8,21.9,30.17,NNE,27,0.0,5.0,85,0.00,,,0.00,Wunderground v.1.15,2013-02-04 11:06:00,
2013-02-04 06:12:00,26.0,21.8,30.17,ENE,65,1.0,5.0,84,0.00,,,0.00,Wunderground v.1.15,2013-02-04 11:12:00,
2013-02-04 06:18:00,26.1,21.9,30.17,ENE,67,0.0,5.0,84,0.00,,,0.00,Wunderground v.1.15,2013-02-04 11:18:00,
2013-02-04 06:24:00,26.2,22.3,30.17,ENE,67,0.0,5.0,85,0.00,,,0.00,Wunderground v.1.15,2013-02-04 11:24:00,
2013-02-04 06:30:00,26.7,23.1,30.17,SE,131,0.0,5.0,86,0.00,,,0.00,Wunderground v.1.15,2013-02-04 11:30:00,
2013-02-04 06:36:00,26.9,23.3,30.17,West,280,0.0,5.0,86,0.00,,,0.00,Wunderground v.1.15,2013-02-04 11:36:00,
2013-02-04 06:42:00,26.8,22.9,30.17,West,278,0.0,5.0,85,0.00,,,0.00,Wunderground v.1.15,2013-02-04 11:42:00,
2013-02-04 06:48:00,26.6,22.7,30.17,NE,39,0.0,5.0,85,0.00,,,0.00,Wunderground v.1.15,2013-02-04 11:48:00,
2013-02-04 06:54:00,26.6,22.4,30.18,NE,39,0.0,5.0,84,0.00,,,0.00,Wunderground v.1.15,2013-02-04 11:54:00,
2013-02-04 07:00:00,26.5,22.6,30.18,WNW,295,0.0,5.0,85,0.00,,,0.00,Wunderground v.1.15,2013-02-04 12:00:00,
2013-02-04 07:06:00,26.5,22.9,30.17,NNW,345,0.0,5.0,86,0.00,,,0.00,Wunderground v.1.15,2013-02-04 12:06:00,
2013-02-04 07:12:00,26.7,22.8,30.17,NNW,344,0.0,5.0,85,0.00,,,0.00,Wunderground v.1.15,2013-02-04 12:12:00,
2013-02-04 07:18:00,26.7,22.8,30.17,North,1,0.0,5.0,85,0.00,,,0.00,Wunderground v.1.15,2013-02-04 12:18:00,
2013-02-04 07:24:00,26.5,22.3,30.17,NE,51,1.0,5.0,84,0.00,,,0.00,Wunderground v.1.15,2013-02-04 12:24:00,
2013-02-04 07:30:00,26.6,22.7,30.18,NE,47,1.0,1.0,85,0.00,,,0.00,Wunderground v.1.15,2013-02-04 12:30:00,
2013-02-04 07:36:00,26.7,22.5,30.18,ENE,61,1.0,5.0,84,0.00,,,0.00,Wunderground v.1.15,2013-02-04 12:36:00,
2013-02-04 07:42:00,26.8,22.3,30.19,NW,308,1.0,5.0,83,0.00,,,0.00,Wunderground v.1.15,2013-02-04 12:42:00,
2013-02-04 07:48:00,26.8,22.0,30.18,NW,307,0.0,5.0,82,0.00,,,0.00,Wunderground v.1.15,2013-02-04 12:48:00,
2013-02-04 07:54:00,26.7,21.9,30.18,NW,308,0.0,5.0,82,0.00,,,0.00,Wunderground v.1.15,2013-02-04 12:54:00,
2013-02-04 08:00:00,26.9,22.1,30.19,NW,308,0.0,5.0,82,0.00,,,0.00,Wunderground v.1.15,2013-02-04 13:00:00,
2013-02-04 08:06:00,26.8,22.3,30.19,NW,308,0.0,5.0,83,0.00,,,0.00,Wunderground v.1.15,2013-02-04 13:06:00,
2013-02-04 08:12:00,26.6,22.4,30.19,ENE,63,0.0,5.0,84,0.00,,,0.00,Wunderground v.1.15,2013-02-04 13:12:00,
2013-02-04 08:18:00,26.8,23.2,30.19,East,92,0.0,5.0,86,0.00,,,0.00,Wunderground v.1.15,2013-02-04 13:18:00,
2013-02-04 08:24:00,27.4,23.2,30.19,SE,128,1.0,5.0,84,0.00,,,0.00,Wunderground v.1.15,2013-02-04 13:24:00,
2013-02-04 08:30:00,28.2,23.7,30.19,ESE,113,1.0,1.0,83,0.00,,,0.00,Wunderground v.1.15,2013-02-04 13:30:00,
2013-02-04 08:36:00,29.3,24.8,30.19,ESE,112,0.0,5.0,83,0.00,,,0.00,Wunderground v.1.15,2013-02-04 13:36:00,
2013-02-04 08:42:00,30.0,24.9,30.19,ESE,112,0.0,5.0,81,0.00,,,0.00,Wunderground v.1.15,2013-02-04 13:42:00,
2013-02-04 08:48:00,30.3,25.2,30.19,SE,136,0.0,5.0,81,0.00,,,0.00,Wunderground v.1.15,2013-02-04 13:48:00,
2013-02-04 08:54:00,30.8,26.0,30.18,SE,136,0.0,5.0,82,0.00,,,0.00,Wunderground v.1.15,2013-02-04 13:54:00,
2013-02-04 09:00:00,30.9,25.8,30.18,SE,143,1.0,1.0,81,0.00,,,0.00,Wunderground v.1.15,2013-02-04 14:00:00,
2013-02-04 09:06:00,30.8,26.2,30.18,SW,218,2.0,7.0,83,0.00,,,0.00,Wunderground v.1.15,2013-02-04 14:06:00,
2013-02-04 09:12:00,30.8,25.7,30.18,SSW,203,4.0,5.0,81,0.00,,,0.00,Wunderground v.1.15,2013-02-04 14:12:00,
2013-02-04 09:18:00,30.8,26.0,30.18,WSW,240,4.0,6.0,82,0.00,,,0.00,Wunderground v.1.15,2013-02-04 14:18:00,
2013-02-04 09:24:00,30.8,25.4,30.18,SSW,213,5.0,5.0,80,0.00,,,0.00,Wunderground v.1.15,2013-02-04 14:24:00,
2013-02-04 09:30:00,30.8,25.4,30.18,WSW,252,5.0,5.0,80,0.00,,,0.00,Wunderground v.1.15,2013-02-04 14:30:00,
2013-02-04 09:36:00,31.0,24.9,30.18,SW,218,4.0,5.0,78,0.00,,,0.00,Wunderground v.1.15,2013-02-04 14:36:00,
2013-02-04 09:42:00,31.1,25.0,30.19,SSW,208,4.0,5.0,78,0.00,,,0.00,Wunderground v.1.15,2013-02-04 14:42:00,
2013-02-04 09:48:00,31.3,24.9,30.19,West,264,3.0,5.0,77,0.00,,,0.00,Wunderground v.1.15,2013-02-04 14:48:00,
2013-02-04 09:54:00,31.4,25.0,30.18,SSW,210,2.0,5.0,77,0.00,,,0.00,Wunderground v.1.15,2013-02-04 14:54:00,
2013-02-04 10:00:00,31.4,25.0,30.19,WSW,248,1.0,1.0,77,0.00,,,0.00,Wunderground v.1.15,2013-02-04 15:00:00,
2013-02-04 10:06:00,31.6,24.9,30.19,West,273,0.0,5.0,76,0.00,,,0.00,Wunderground v.1.15,2013-02-04 15:06:00,
2013-02-04 10:12:00,32.0,25.3,30.18,West,273,0.0,5.0,76,0.00,,,0.00,Wunderground v.1.15,2013-02-04 15:12:00,
2013-02-04 10:18:00,32.1,25.1,30.18,South,191,0.0,5.0,75,0.00,,,0.00,Wunderground v.1.15,2013-02-04 15:18:00,
2013-02-04 10:24:00,32.0,25.0,30.18,SSW,200,1.0,5.0,75,0.00,,,0.00,Wunderground v.1.15,2013-02-04 15:24:00,
2013-02-04 10:30:00,32.1,25.7,30.18,South,179,2.0,2.0,77,0.00,,,0.00,Wunderground v.1.15,2013-02-04 15:30:00,
2013-02-04 10:36:00,32.4,25.4,30.18,SSE,158,1.0,5.0,75,0.00,,,0.00,Wunderground v.1.15,2013-02-04 15:36:00,
2013-02-04 10:42:00,33.0,25.9,30.19,NNE,31,1.0,5.0,75,0.00,,,0.00,Wunderground v.1.15,2013-02-04 15:42:00,
2013-02-04 10:48:00,33.6,25.9,30.18,ESE,105,0.0,5.0,73,0.00,,,0.00,Wunderground v.1.15,2013-02-04 15:48:00,
2013-02-04 10:54:00,33.5,25.8,30.18,ESE,117,1.0,5.0,73,0.00,,,0.00,Wunderground v.1.15,2013-02-04 15:54:00,
2013-02-04 11:00:00,34.1,26.3,30.18,SE,127,0.0,5.0,73,0.00,,,0.00,Wunderground v.1.15,2013-02-04 16:00:00,
2013-02-04 11:06:00,33.7,25.6,30.18,SSE,150,1.0,5.0,72,0.00,,,0.00,Wunderground v.1.15,2013-02-04 16:06:00,
2013-02-04 11:12:00,33.5,25.4,30.18,SSE,151,2.0,5.0,72,0.00,,,0.00,Wunderground v.1.15,2013-02-04 16:12:00,
2013-02-04 11:18:00,33.9,25.8,30.18,WSW,249,1.0,5.0,72,0.00,,,0.00,Wunderground v.1.15,2013-02-04 16:18:00,
2013-02-04 11:24:00,34.1,26.0,30.17,SSW,212,1.0,5.0,72,0.00,,,0.00,Wunderground v.1.15,2013-02-04 16:24:00,
2013-02-04 11:30:00,34.1,26.0,30.17,SSW,195,2.0,5.0,72,0.00,,,0.00,Wunderground v.1.15,2013-02-04 16:30:00,
2013-02-04 11:36:00,34.2,25.8,30.17,SW,216,2.0,5.0,71,0.00,,,0.00,Wunderground v.1.15,2013-02-04 16:36:00,
2013-02-04 11:42:00,34.4,26.3,30.17,SW,215,3.0,5.0,72,0.00,,,0.00,Wunderground v.1.15,2013-02-04 16:42:00,
2013-02-04 11:48:00,34.7,26.3,30.17,SW,232,2.0,5.0,71,0.00,,,0.00,Wunderground v.1.15,2013-02-04 16:48:00,
2013-02-04 11:54:00,34.9,26.1,30.17,WSW,246,2.0,5.0,70,0.00,,,0.00,Wunderground v.1.15,2013-02-04 16:54:00,
2013-02-04 12:00:00,35.0,25.5,30.17,SW,217,3.0,5.0,68,0.00,,,0.00,Wunderground v.1.15,2013-02-04 17:00:00,
2013-02-04 12:06:00,35.0,25.5,30.16,SW,217,3.0,5.0,68,0.00,,,0.00,Wunderground v.1.15,2013-02-04 17:06:00,
2013-02-04 12:12:00,35.1,25.6,30.15,SW,232,4.0,5.0,68,0.00,,,0.00,Wunderground v.1.15,2013-02-04 17:12:00,
2013-02-04 12:18:00,35.0,24.8,30.15,WSW,243,5.0,6.0,66,0.00,,,0.00,Wunderground v.1.15,2013-02-04 17:18:00,
2013-02-04 12:24:00,35.0,24.8,30.15,SW,232,5.0,5.0,66,0.00,,,0.00,Wunderground v.1.15,2013-02-04 17:24:00,
2013-02-04 12:30:00,35.1,24.5,30.14,SW,217,5.0,5.0,65,0.00,,,0.00,Wunderground v.1.15,2013-02-04 17:30:00,
2013-02-04 12:36:00,35.4,25.5,30.14,SW,221,4.0,5.0,67,0.00,,,0.00,Wunderground v.1.15,2013-02-04 17:36:00,
2013-02-04 12:42:00,35.5,25.3,30.14,SW,228,4.0,5.0,66,0.00,,,0.00,Wunderground v.1.15,2013-02-04 17:42:00,
2013-02-04 12:48:00,35.8,25.5,30.13,WSW,252,3.0,5.0,66,0.00,,,0.00,Wunderground v.1.15,2013-02-04 17:48:00,
2013-02-04 12:54:00,36.3,26.4,30.12,SSW,205,2.0,5.0,67,0.00,,,0.00,Wunderground v.1.15,2013-02-04 17:54:00,
2013-02-04 13:00:00,36.9,25.5,30.12,WSW,240,3.0,5.0,63,0.00,,,0.00,Wunderground v.1.15,2013-02-04 18:00:00,
2013-02-04 13:06:00,37.5,25.3,30.12,SW,219,2.0,5.0,61,0.00,,,0.00,Wunderground v.1.15,2013-02-04 18:06:00,
2013-02-04 13:12:00,38.2,25.9,30.11,NNE,25,1.0,5.0,61,0.00,,,0.00,Wunderground v.1.15,2013-02-04 18:12:00,
2013-02-04 13:18:00,38.9,27.4,30.11,SE,146,0.0,5.0,63,0.00,,,0.00,Wunderground v.1.15,2013-02-04 18:18:00,
2013-02-04 13:24:00,39.7,27.3,30.11,SSW,203,0.0,5.0,61,0.00,,,0.00,Wunderground v.1.15,2013-02-04 18:24:00,
2013-02-04 13:30:00,38.8,26.1,30.10,SSW,198,2.0,2.0,60,0.00,,,0.00,Wunderground v.1.15,2013-02-04 18:30:00,
2013-02-04 13:36:00,38.9,26.2,30.10,WSW,243,2.0,5.0,60,0.00,,,0.00,Wunderground v.1.15,2013-02-04 18:36:00,
2013-02-04 13:42:00,39.6,26.4,30.09,SW,235,1.0,5.0,59,0.00,,,0.00,Wunderground v.1.15,2013-02-04 18:42:00,
2013-02-04 13:48:00,40.2,26.6,30.09,SW,225,1.0,5.0,58,0.00,,,0.00,Wunderground v.1.15,2013-02-04 18:48:00,
2013-02-04 13:54:00,40.2,27.0,30.09,SW,223,3.0,5.0,59,0.00,,,0.00,Wunderground v.1.15,2013-02-04 18:54:00,
2013-02-04 14:00:00,39.7,25.7,30.08,SSW,195,4.0,5.0,57,0.00,,,0.00,Wunderground v.1.15,2013-02-04 19:00:00,
2013-02-04 14:06:00,39.5,25.9,30.08,SSW,193,3.0,5.0,58,0.00,,,0.00,Wunderground v.1.15,2013-02-04 19:06:00,
2013-02-04 14:12:00,39.3,26.6,30.08,South,181,3.0,5.0,60,0.00,,,0.00,Wunderground v.1.15,2013-02-04 19:12:00,
2013-02-04 14:18:00,39.0,25.5,30.07,SSW,195,3.0,5.0,58,0.00,,,0.00,Wunderground v.1.15,2013-02-04 19:18:00,
2013-02-04 14:24:00,39.0,26.7,30.07,SSW,212,3.0,5.0,61,0.00,,,0.00,Wunderground v.1.15,2013-02-04 19:24:00,
2013-02-04 14:30:00,39.3,27.0,30.07,SSW,194,3.0,5.0,61,0.00,,,0.00,Wunderground v.1.15,2013-02-04 19:30:00,
2013-02-04 14:36:00,39.5,27.2,30.07,SSW,211,3.0,5.0,61,0.00,,,0.00,Wunderground v.1.15,2013-02-04 19:36:00,
2013-02-04 14:42:00,39.9,26.3,30.06,SW,235,2.0,5.0,58,0.00,,,0.00,Wunderground v.1.15,2013-02-04 19:42:00,
2013-02-04 14:48:00,40.1,27.3,30.06,SSW,204,2.0,5.0,60,0.00,,,0.00,Wunderground v.1.15,2013-02-04 19:48:00,
2013-02-04 14:54:00,40.4,27.2,30.06,South,188,2.0,5.0,59,0.00,,,0.00,Wunderground v.1.15,2013-02-04 19:54:00,
2013-02-04 15:00:00,40.6,27.4,30.06,SSW,194,2.0,2.0,59,0.00,,,0.00,Wunderground v.1.15,2013-02-04 20:00:00,
2013-02-04 15:06:00,40.5,27.7,30.07,SW,219,2.0,5.0,60,0.00,,,0.00,Wunderground v.1.15,2013-02-04 20:06:00,
2013-02-04 15:12:00,40.9,28.9,30.06,West,261,3.0,5.0,62,0.00,,,0.00,Wunderground v.1.15,2013-02-04 20:12:00,
2013-02-04 15:18:00,41.7,27.6,30.06,WNW,301,4.0,5.0,57,0.00,,,0.00,Wunderground v.1.15,2013-02-04 20:18:00,
2013-02-04 15:24:00,42.2,28.5,30.06,West,264,4.0,5.0,58,0.00,,,0.00,Wunderground v.1.15,2013-02-04 20:24:00,
2013-02-04 15:30:00,42.2,28.0,30.06,NW,314,4.0,5.0,57,0.00,,,0.00,Wunderground v.1.15,2013-02-04 20:30:00,
2013-02-04 15:36:00,42.6,28.0,30.06,NNW,327,3.0,5.0,56,0.00,,,0.00,Wunderground v.1.15,2013-02-04 20:36:00,
2013-02-04 15:42:00,42.7,28.1,30.06,West,267,2.0,3.0,56,0.00,,,0.00,Wunderground v.1.15,2013-02-04 20:42:00,
2013-02-04 15:48:00,43.0,28.4,30.06,NW,307,2.0,5.0,56,0.00,,,0.00,Wunderground v.1.15,2013-02-04 20:48:00,
2013-02-04 15:54:00,43.2,28.1,30.06,NW,323,1.0,5.0,55,0.00,,,0.00,Wunderground v.1.15,2013-02-04 20:54:00,
2013-02-04 16:00:00,43.3,28.6,30.06,NNW,335,2.0,2.0,56,0.00,,,0.00,Wunderground v.1.15,2013-02-04 21:00:00,
2013-02-04 16:06:00,43.7,29.9,30.06,SW,233,1.0,5.0,58,0.00,,,0.00,Wunderground v.1.15,2013-02-04 21:06:00,
2013-02-04 16:12:00,43.9,27.9,30.05,NW,321,3.0,6.0,53,0.00,,,0.00,Wunderground v.1.15,2013-02-04 21:12:00,
2013-02-04 16:18:00,44.1,28.9,30.05,North,355,6.0,7.0,55,0.00,,,0.00,Wunderground v.1.15,2013-02-04 21:18:00,
2013-02-04 16:24:00,44.3,28.7,30.04,NNW,339,4.0,5.0,54,0.00,,,0.00,Wunderground v.1.15,2013-02-04 21:24:00,
2013-02-04 16:30:00,44.2,29.0,30.04,West,267,4.0,4.0,55,0.00,,,0.00,Wunderground v.1.15,2013-02-04 21:30:00,
2013-02-04 16:36:00,44.2,30.8,30.04,West,274,3.0,5.0,59,0.00,,,0.00,Wunderground v.1.15,2013-02-04 21:36:00,
2013-02-04 16:42:00,44.2,30.3,30.03,WNW,285,2.0,5.0,58,0.00,,,0.00,Wunderground v.1.15,2013-02-04 21:42:00,
2013-02-04 16:48:00,44.2,29.0,30.03,NW,309,2.0,5.0,55,0.00,,,0.00,Wunderground v.1.15,2013-02-04 21:48:00,
2013-02-04 16:54:00,44.2,29.5,30.03,WNW,282,2.0,5.0,56,0.00,,,0.00,Wunderground v.1.15,2013-02-04 21:54:00,
2013-02-04 17:00:00,43.9,29.6,30.02,WNW,302,3.0,5.0,57,0.00,,,0.00,Wunderground v.1.15,2013-02-04 22:00:00,
2013-02-04 17:06:00,43.8,29.5,30.03,NW,323,3.0,5.0,57,0.00,,,0.00,Wunderground v.1.15,2013-02-04 22:06:00,
2013-02-04 17:12:00,43.6,29.8,30.02,NNW,347,3.0,5.0,58,0.00,,,0.00,Wunderground v.1.15,2013-02-04 22:12:00,
2013-02-04 17:18:00,43.5,30.1,30.02,NW,304,2.0,5.0,59,0.00,,,0.00,Wunderground v.1.15,2013-02-04 22:18:00,
2013-02-04 17:24:00,43.4,30.0,30.02,NW,314,2.0,5.0,59,0.00,,,0.00,Wunderground v.1.15,2013-02-04 22:24:00,
2013-02-04 17:30:00,43.3,30.3,30.02,NNW,334,2.0,5.0,60,0.00,,,0.00,Wunderground v.1.15,2013-02-04 22:30:00,
2013-02-04 17:36:00,43.2,29.8,30.02,NNW,330,2.0,5.0,59,0.00,,,0.00,Wunderground v.1.15,2013-02-04 22:36:00,
2013-02-04 17:42:00,43.2,29.8,30.02,NW,319,2.0,5.0,59,0.00,,,0.00,Wunderground v.1.15,2013-02-04 22:42:00,
2013-02-04 17:48:00,43.1,30.1,30.02,NNW,335,2.0,5.0,60,0.00,,,0.00,Wunderground v.1.15,2013-02-04 22:48:00,
2013-02-04 17:54:00,42.8,29.9,30.02,North,8,1.0,5.0,60,0.00,,,0.00,Wunderground v.1.15,2013-02-04 22:54:00,
2013-02-04 18:00:00,42.4,29.9,30.02,North,8,0.0,5.0,61,0.00,,,0.00,Wunderground v.1.15,2013-02-04 23:00:00,
2013-02-04 18:06:00,41.9,29.8,30.02,North,8,0.0,5.0,62,0.00,,,0.00,Wunderground v.1.15,2013-02-04 23:06:00,
2013-02-04 18:12:00,41.5,29.8,30.02,North,7,0.0,5.0,63,0.00,,,0.00,Wunderground v.1.15,2013-02-04 23:12:00,
2013-02-04 18:18:00,41.5,29.4,30.02,North,8,1.0,5.0,62,0.00,,,0.00,Wunderground v.1.15,2013-02-04 23:18:00,
2013-02-04 18:24:00,41.4,29.3,30.02,North,352,1.0,5.0,62,0.00,,,0.00,Wunderground v.1.15,2013-02-04 23:24:00,
2013-02-04 18:30:00,41.2,29.5,30.02,North,352,1.0,5.0,63,0.00,,,0.00,Wunderground v.1.15,2013-02-04 23:30:00,
2013-02-04 18:36:00,40.9,29.7,30.01,NW,319,1.0,5.0,64,0.00,,,0.00,Wunderground v.1.15,2013-02-04 23:36:00,
2013-02-04 18:42:00,40.7,30.6,30.02,NW,319,0.0,5.0,67,0.00,,,0.00,Wunderground v.1.15,2013-02-04 23:42:00,
2013-02-04 18:48:00,40.2,30.1,30.02,North,354,0.0,5.0,67,0.00,,,0.00,Wunderground v.1.15,2013-02-04 23:48:00,
2013-02-04 18:54:00,40.0,31.0,30.02,North,354,0.0,5.0,70,0.00,,,0.00,Wunderground v.1.15,2013-02-04 23:54:00,
2013-02-04 19:00:00,40.1,30.4,30.02,North,354,0.0,5.0,68,0.00,,,0.00,Wunderground v.1.15,2013-02-05 00:00:00,
2013-02-04 19:06:00,40.0,29.9,30.02,NNE,16,1.0,5.0,67,0.00,,,0.00,Wunderground v.1.15,2013-02-05 00:06:00,
2013-02-04 19:12:00,39.8,30.8,30.02,NNE,16,0.0,5.0,70,0.00,,,0.00,Wunderground v.1.15,2013-02-05 00:12:00,
2013-02-04 19:18:00,39.3,30.7,30.03,NNE,15,0.0,5.0,71,0.00,,,0.00,Wunderground v.1.15,2013-02-05 00:18:00,
2013-02-04 19:24:00,39.1,30.8,30.03,NNE,15,0.0,5.0,72,0.00,,,0.00,Wunderground v.1.15,2013-02-05 00:24:00,
2013-02-04 19:30:00,38.7,30.4,30.03,NE,47,0.0,5.0,72,0.00,,,0.00,Wunderground v.1.15,2013-02-05 00:30:00,
2013-02-04 19:36:00,38.3,30.4,30.03,NE,51,1.0,5.0,73,0.00,,,0.00,Wunderground v.1.15,2013-02-05 00:36:00,
2013-02-04 19:42:00,38.2,30.6,30.03,ENE,61,0.0,5.0,74,0.00,,,0.00,Wunderground v.1.15,2013-02-05 00:42:00,
2013-02-04 19:48:00,38.1,30.2,30.03,ENE,60,0.0,5.0,73,0.00,,,0.00,Wunderground v.1.15,2013-02-05 00:48:00,
2013-02-04 19:54:00,37.9,30.4,30.03,ENE,61,0.0,5.0,74,0.00,,,0.00,Wunderground v.1.15,2013-02-05 00:54:00,
2013-02-04 20:00:00,37.7,30.5,30.03,ENE,60,0.0,5.0,75,0.00,,,0.00,Wunderground v.1.15,2013-02-05 01:00:00,
2013-02-04 20:06:00,37.5,30.3,30.02,ENE,61,0.0,5.0,75,0.00,,,0.00,Wunderground v.1.15,2013-02-05 01:06:00,
2013-02-04 20:12:00,37.6,30.4,30.02,ENE,60,0.0,5.0,75,0.00,,,0.00,Wunderground v.1.15,2013-02-05 01:12:00,
2013-02-04 20:18:00,37.7,30.5,30.02,ENE,61,0.0,5.0,75,0.00,,,0.00,Wunderground v.1.15,2013-02-05 01:18:00,
2013-02-04 20:24:00,37.4,30.8,30.02,ENE,65,1.0,5.0,77,0.00,,,0.00,Wunderground v.1.15,2013-02-05 01:24:00,
2013-02-04 20:30:00,37.5,30.6,30.03,ENE,65,0.0,5.0,76,0.00,,,0.00,Wunderground v.1.15,2013-02-05 01:30:00,
2013-02-04 20:36:00,37.5,30.9,30.03,NE,34,0.0,5.0,77,0.00,,,0.00,Wunderground v.1.15,2013-02-05 01:36:00,
2013-02-04 20:42:00,37.7,30.8,30.03,NE,34,0.0,5.0,76,0.00,,,0.00,Wunderground v.1.15,2013-02-05 01:42:00,
2013-02-04 20:48:00,37.8,30.9,30.03,NE,34,0.0,5.0,76,0.00,,,0.00,Wunderground v.1.15,2013-02-05 01:48:00,
2013-02-04 20:54:00,37.9,30.7,30.03,NE,34,0.0,5.0,75,0.00,,,0.00,Wunderground v.1.15,2013-02-05 01:54:00,
2013-02-04 21:00:00,37.8,30.9,30.03,NE,34,0.0,5.0,76,0.00,,,0.00,Wunderground v.1.15,2013-02-05 02:00:00,
2013-02-04 21:06:00,37.6,31.4,30.03,NE,34,0.0,5.0,78,0.00,,,0.00,Wunderground v.1.15,2013-02-05 02:06:00,
2013-02-04 21:12:00,37.8,31.2,30.03,NE,34,0.0,5.0,77,0.00,,,0.00,Wunderground v.1.15,2013-02-05 02:12:00,
2013-02-04 21:18:00,37.9,31.3,30.03,NE,34,0.0,5.0,77,0.00,,,0.00,Wunderground v.1.15,2013-02-05 02:18:00,
2013-02-04 21:24:00,38.0,31.1,30.03,NE,34,0.0,5.0,76,0.00,,,0.00,Wunderground v.1.15,2013-02-05 02:24:00,
2013-02-04 21:30:00,38.2,31.0,30.03,NE,34,0.0,5.0,75,0.00,,,0.00,Wunderground v.1.15,2013-02-05 02:30:00,
2013-02-04 21:36:00,38.1,31.5,30.03,East,95,0.0,5.0,77,0.00,,,0.00,Wunderground v.1.15,2013-02-05 02:36:00,
2013-02-04 21:42:00,37.9,31.3,30.03,ESE,103,0.0,5.0,77,0.00,,,0.00,Wunderground v.1.15,2013-02-05 02:42:00,
2013-02-04 21:48:00,38.0,31.4,30.03,ENE,75,0.0,5.0,77,0.00,,,0.00,Wunderground v.1.15,2013-02-05 02:48:00,
2013-02-04 21:54:00,38.2,31.3,30.03,ENE,69,0.0,5.0,76,0.00,,,0.00,Wunderground v.1.15,2013-02-05 02:54:00,
2013-02-04 22:00:00,38.3,31.4,30.03,NE,49,0.0,5.0,76,0.00,,,0.00,Wunderground v.1.15,2013-02-05 03:00:00,
2013-02-04 22:06:00,38.4,31.2,30.03,NE,49,0.0,5.0,75,0.00,,,0.00,Wunderground v.1.15,2013-02-05 03:06:00,
2013-02-04 22:12:00,38.3,32.0,30.03,NE,49,0.0,5.0,78,0.00,,,0.00,Wunderground v.1.15,2013-02-05 03:12:00,
2013-02-04 22:18:00,38.1,32.5,30.02,NE,48,0.0,5.0,80,0.00,,,0.00,Wunderground v.1.15,2013-02-05 03:18:00,
2013-02-04 22:24:00,37.9,32.9,30.02,SE,143,0.0,5.0,82,0.00,,,0.00,Wunderground v.1.15,2013-02-05 03:24:00,
2013-02-04 22:30:00,38.0,32.7,30.02,SE,143,0.0,5.0,81,0.00,,,0.00,Wunderground v.1.15,2013-02-05 03:30:00,
2013-02-04 22:36:00,38.2,32.6,30.02,SE,145,0.0,5.0,80,0.00,,,0.00,Wunderground v.1.15,2013-02-05 03:36:00,
2013-02-04 22:42:00,38.0,32.1,30.02,East,86,0.0,5.0,79,0.00,,,0.00,Wunderground v.1.15,2013-02-05 03:42:00,
2013-02-04 22:48:00,37.9,31.7,30.02,East,100,0.0,5.0,78,0.00,,,0.00,Wunderground v.1.15,2013-02-05 03:48:00,
2013-02-04 22:54:00,38.1,31.2,30.02,East,100,0.0,5.0,76,0.00,,,0.00,Wunderground v.1.15,2013-02-05 03:54:00,
2013-02-04 23:00:00,38.2,31.3,30.01,North,350,0.0,5.0,76,0.00,,,0.00,Wunderground v.1.15,2013-02-05 04:00:00,
2013-02-04 23:06:00,38.3,31.4,30.01,North,1,0.0,5.0,76,0.00,,,0.00,Wunderground v.1.15,2013-02-05 04:06:00,
2013-02-04 23:18:00,38.1,31.5,30.01,NW,314,2.0,5.0,77,0.00,,,0.00,Wunderground v.1.15,2013-02-05 04:18:00,
2013-02-04 23:24:00,38.1,31.8,30.01,North,11,2.0,5.0,78,0.00,,,0.00,Wunderground v.1.15,2013-02-05 04:24:00,
2013-02-04 23:30:00,38.0,32.4,30.01,SE,131,1.0,5.0,80,0.00,,,0.00,Wunderground v.1.15,2013-02-05 04:30:00,
2013-02-04 23:36:00,38.0,32.7,30.01,SSE,155,1.0,5.0,81,0.00,,,0.00,Wunderground v.1.15,2013-02-05 04:36:00,
2013-02-04 23:42:00,38.1,32.8,30.01,SSE,155,0.0,5.0,81,0.00,,,0.00,Wunderground v.1.15,2013-02-05 04:42:00,
2013-02-04 23:48:00,37.9,32.6,30.01,SSE,155,0.0,5.0,81,0.00,,,0.00,Wunderground v.1.15,2013-02-05 04:48:00,
2013-02-04 23:54:00,38.0,32.7,30.01,ESE,114,0.0,5.0,81,0.00,,,0.00,Wunderground v.1.15,2013-02-05 04:54:00,